Time,TemperatureF,DewpointF,PressureIn,WindDirection,WindDirectionDegrees,WindSpeedMPH,WindSpeedGustMPH,Humidity,HourlyPrecipIn,Conditions,Clouds,dailyrainin,SolarRadiationWatts/m^2,SoftwareType,DateUTC
2013-07-07 00:05:00,77.6,73.1,30.16,South,181,5.0,5.0,86,0.00,,,0.00,0,Wunderground v.1.15,2013-07-07 04:05:00,
2013-07-07 00:10:00,77.5,73.0,30.16,SSE,151,3.0,3.0,86,0.00,,,0.00,0,Wunderground v.1.15,2013-07-07 04:10:00,
2013-07-07 00:15:00,77.5,73.0,30.17,SE,132,1.0,3.0,86,0.00,,,0.00,0,Wunderground v.1.15,2013-07-07 04:15:00,
2013-07-07 00:20:00,77.5,73.0,30.17,SSE,148,0.0,0.0,86,0.00,,,0.00,0,Wunderground v.1.15,2013-07-07 04:20:00,
2013-07-07 00:25:00,77.4,73.2,30.16,SSE,166,0.0,0.0,87,0.00,,,0.00,0,Wunderground v.1.15,2013-07-07 04:25:00,
2013-07-07 00:30:00,77.3,73.1,30.17,South,169,0.0,0.0,87,0.00,,,0.00,0,Wunderground v.1.15,2013-07-07 04:30:00,
2013-07-07 00:35:00,77.1,72.9,30.17,South,169,0.0,0.0,87,0.00,,,0.00,0,Wunderground v.1.15,2013-07-07 04:35:00,
2013-07-07 00:45:00,76.8,73.0,30.17,SE,133,0.0,0.0,88,0.00,,,0.00,0,Wunderground v.1.15,2013-07-07 04:45:00,
2013-07-07 00:50:00,76.7,72.9,30.17,South,180,1.0,1.0,88,0.00,,,0.00,0,Wunderground v.1.15,2013-07-07 04:50:00,
2013-07-07 00:55:00,76.6,72.8,30.17,SSE,167,1.0,1.0,88,0.00,,,0.00,0,Wunderground v.1.15,2013-07-07 04:55:00,
2013-07-07 01:00:00,76.6,72.8,30.17,South,188,0.0,0.0,88,0.00,,,0.00,0,Wunderground v.1.15,2013-07-07 05:00:00,
2013-07-07 01:10:00,76.5,72.7,30.16,SSE,157,1.0,5.0,88,0.00,,,0.00,0,Wunderground v.1.15,2013-07-07 05:10:00,
2013-07-07 01:15:00,76.5,72.7,30.16,SSE,153,1.0,5.0,88,0.00,,,0.00,0,Wunderground v.1.15,2013-07-07 05:15:00,
2013-07-07 01:20:00,76.5,72.7,30.16,SSE,165,2.0,2.0,88,0.00,,,0.00,0,Wunderground v.1.15,2013-07-07 05:20:00,
2013-07-07 01:25:00,76.5,72.7,30.16,SSE,163,1.0,2.0,88,0.00,,,0.00,0,Wunderground v.1.15,2013-07-07 05:25:00,
2013-07-07 01:35:00,76.3,72.5,30.16,SSE,151,0.0,0.0,88,0.00,,,0.00,0,Wunderground v.1.15,2013-07-07 05:35:00,
2013-07-07 01:40:00,76.3,72.5,30.16,SSE,151,0.0,0.0,88,0.00,,,0.00,0,Wunderground v.1.15,2013-07-07 05:40:00,
2013-07-07 01:45:00,76.1,72.3,30.16,SSE,151,0.0,0.0,88,0.00,,,0.00,0,Wunderground v.1.15,2013-07-07 05:45:00,
2013-07-07 01:50:00,76.0,72.2,30.16,SSE,165,0.0,0.0,88,0.00,,,0.00,0,Wunderground v.1.15,2013-07-07 05:50:00,
2013-07-07 01:55:00,75.9,72.4,30.16,SSW,205,0.0,0.0,89,0.00,,,0.00,0,Wunderground v.1.15,2013-07-07 05:55:00,
2013-07-07 02:05:00,75.7,72.2,30.16,SSE,159,1.0,2.0,89,0.00,,,0.00,0,Wunderground v.1.15,2013-07-07 06:05:00,
2013-07-07 02:10:00,75.7,72.2,30.16,SSE,161,0.0,0.0,89,0.00,,,0.00,0,Wunderground v.1.15,2013-07-07 06:10:00,
2013-07-07 02:15:00,75.6,72.1,30.15,SSE,165,0.0,0.0,89,0.00,,,0.00,0,Wunderground v.1.15,2013-07-07 06:15:00,
2013-07-07 02:20:00,75.5,72.0,30.15,SSE,165,0.0,0.0,89,0.00,,,0.00,0,Wunderground v.1.15,2013-07-07 06:20:00,
2013-07-07 02:30:00,75.3,71.5,30.15,South,180,0.0,0.0,88,0.00,,,0.00,0,Wunderground v.1.15,2013-07-07 06:30:00,
2013-07-07 02:35:00,75.2,71.7,30.15,SE,146,0.0,0.0,89,0.00,,,0.00,0,Wunderground v.1.15,2013-07-07 06:35:00,
2013-07-07 02:40:00,75.1,71.6,30.15,SSE,167,0.0,0.0,89,0.00,,,0.00,0,Wunderground v.1.15,2013-07-07 06:40:00,
2013-07-07 02:45:00,74.9,71.4,30.15,SSE,167,0.0,0.0,89,0.00,,,0.00,0,Wunderground v.1.15,2013-07-07 06:45:00,
2013-07-07 02:50:00,74.9,71.4,30.15,SSE,167,0.0,0.0,89,0.00,,,0.00,0,Wunderground v.1.15,2013-07-07 06:50:00,
2013-07-07 03:00:00,74.7,71.2,30.15,SSE,164,0.0,0.0,89,0.00,,,0.00,0,Wunderground v.1.15,2013-07-07 07:00:00,
2013-07-07 03:05:00,74.6,71.1,30.15,South,171,0.0,0.0,89,0.00,,,0.00,0,Wunderground v.1.15,2013-07-07 07:05:00,
2013-07-07 03:10:00,74.5,71.0,30.15,SSE,148,0.0,0.0,89,0.00,,,0.00,0,Wunderground v.1.15,2013-07-07 07:10:00,
2013-07-07 03:15:00,74.4,70.9,30.15,SSE,148,0.0,0.0,89,0.00,,,0.00,0,Wunderground v.1.15,2013-07-07 07:15:00,
2013-07-07 03:20:00,74.4,70.9,30.15,SSE,148,0.0,0.0,89,0.00,,,0.00,0,Wunderground v.1.15,2013-07-07 07:20:00,
2013-07-07 03:30:00,74.2,70.7,30.15,SSE,148,0.0,0.0,89,0.00,,,0.00,0,Wunderground v.1.15,2013-07-07 07:30:00,
2013-07-07 03:35:00,74.1,71.0,30.15,SSE,148,0.0,0.0,90,0.00,,,0.00,0,Wunderground v.1.15,2013-07-07 07:35:00,
2013-07-07 03:40:00,74.0,70.9,30.15,SSE,148,0.0,0.0,90,0.00,,,0.00,0,Wunderground v.1.15,2013-07-07 07:40:00,
2013-07-07 03:45:00,74.0,70.9,30.15,SSE,148,0.0,0.0,90,0.00,,,0.00,0,Wunderground v.1.15,2013-07-07 07:45:00,
2013-07-07 03:55:00,73.8,70.7,30.14,SSE,148,0.0,0.0,90,0.00,,,0.00,0,Wunderground v.1.15,2013-07-07 07:55:00,
2013-07-07 04:00:00,73.7,70.9,30.14,SSE,148,0.0,0.0,91,0.00,,,0.00,0,Wunderground v.1.15,2013-07-07 08:00:00,
2013-07-07 04:05:00,73.6,70.8,30.14,SSE,148,0.0,0.0,91,0.00,,,0.00,0,Wunderground v.1.15,2013-07-07 08:05:00,
2013-07-07 04:10:00,73.3,70.5,30.14,SSE,148,0.0,0.0,91,0.00,,,0.00,0,Wunderground v.1.15,2013-07-07 08:10:00,
2013-07-07 04:15:00,73.1,70.6,30.14,SSE,148,0.0,0.0,92,0.00,,,0.00,0,Wunderground v.1.15,2013-07-07 08:15:00,
2013-07-07 04:25:00,72.7,70.2,30.14,SSE,148,0.0,0.0,92,0.00,,,0.00,0,Wunderground v.1.15,2013-07-07 08:25:00,
2013-07-07 04:30:00,72.5,70.4,30.14,SSE,148,0.0,0.0,93,0.00,,,0.00,0,Wunderground v.1.15,2013-07-07 08:30:00,
2013-07-07 04:35:00,72.5,70.4,30.14,SSE,148,0.0,0.0,93,0.00,,,0.00,0,Wunderground v.1.15,2013-07-07 08:35:00,
2013-07-07 04:40:00,72.3,70.2,30.14,SSE,148,0.0,0.0,93,0.00,,,0.00,0,Wunderground v.1.15,2013-07-07 08:40:00,
2013-07-07 04:50:00,72.1,70.3,30.15,SSE,148,0.0,0.0,94,0.00,,,0.00,0,Wunderground v.1.15,2013-07-07 08:50:00,
2013-07-07 04:55:00,71.9,70.1,30.15,SSE,148,0.0,0.0,94,0.00,,,0.00,0,Wunderground v.1.15,2013-07-07 08:55:00,
2013-07-07 05:00:00,71.9,70.1,30.14,SSE,148,0.0,0.0,94,0.00,,,0.00,0,Wunderground v.1.15,2013-07-07 09:00:00,
2013-07-07 05:05:00,71.8,70.0,30.15,SSE,148,0.0,0.0,94,0.00,,,0.00,0,Wunderground v.1.15,2013-07-07 09:05:00,
2013-07-07 05:10:00,71.7,69.9,30.15,SSE,148,0.0,0.0,94,0.00,,,0.00,0,Wunderground v.1.15,2013-07-07 09:10:00,
2013-07-07 05:20:00,71.5,70.0,30.15,SSE,148,0.0,0.0,95,0.00,,,0.00,0,Wunderground v.1.15,2013-07-07 09:20:00,
2013-07-07 05:25:00,71.4,69.9,30.15,SSE,148,0.0,0.0,95,0.00,,,0.00,0,Wunderground v.1.15,2013-07-07 09:25:00,
2013-07-07 05:30:00,71.4,69.9,30.15,SSE,148,0.0,0.0,95,0.00,,,0.00,0,Wunderground v.1.15,2013-07-07 09:30:00,
2013-07-07 05:35:00,71.4,69.9,30.15,SSE,148,0.0,0.0,95,0.00,,,0.00,0,Wunderground v.1.15,2013-07-07 09:35:00,
2013-07-07 05:45:00,71.2,69.7,30.15,SSE,148,0.0,0.0,95,0.00,,,0.00,0,Wunderground v.1.15,2013-07-07 09:45:00,
2013-07-07 05:50:00,71.2,69.7,30.15,SSE,148,0.0,0.0,95,0.00,,,0.00,0,Wunderground v.1.15,2013-07-07 09:50:00,
2013-07-07 05:55:00,71.2,69.7,30.15,SSE,148,0.0,0.0,95,0.00,,,0.00,0,Wunderground v.1.15,2013-07-07 09:55:00,
2013-07-07 06:00:00,71.1,69.6,30.15,SSE,148,0.0,0.0,95,0.00,,,0.00,0,Wunderground v.1.15,2013-07-07 10:00:00,
2013-07-07 06:10:00,71.1,69.6,30.15,SSE,162,0.0,0.0,95,0.00,,,0.00,5,Wunderground v.1.15,2013-07-07 10:10:00,
2013-07-07 06:15:00,71.1,69.6,30.15,SSE,162,0.0,0.0,95,0.00,,,0.00,5,Wunderground v.1.15,2013-07-07 10:15:00,
2013-07-07 06:20:00,71.0,69.5,30.15,SSE,162,0.0,0.0,95,0.00,,,0.00,7,Wunderground v.1.15,2013-07-07 10:20:00,
2013-07-07 06:25:00,71.0,69.5,30.15,SSE,148,0.0,0.0,95,0.00,,,0.00,9,Wunderground v.1.15,2013-07-07 10:25:00,
2013-07-07 06:30:00,71.0,69.5,30.15,SSE,148,0.0,0.0,95,0.00,,,0.00,11,Wunderground v.1.15,2013-07-07 10:30:00,
2013-07-07 06:40:00,71.0,69.5,30.16,SSE,150,0.0,0.0,95,0.00,,,0.00,12,Wunderground v.1.15,2013-07-07 10:40:00,
2013-07-07 06:45:00,71.0,69.5,30.16,SSE,160,0.0,0.0,95,0.00,,,0.00,14,Wunderground v.1.15,2013-07-07 10:45:00,
2013-07-07 06:50:00,71.0,69.5,30.16,SSE,160,0.0,0.0,95,0.00,,,0.00,14,Wunderground v.1.15,2013-07-07 10:50:00,
2013-07-07 07:00:00,71.0,69.5,30.17,SSE,160,0.0,0.0,95,0.00,,,0.00,16,Wunderground v.1.15,2013-07-07 11:00:00,
2013-07-07 07:05:00,71.0,69.5,30.17,SSE,161,0.0,0.0,95,0.00,,,0.00,16,Wunderground v.1.15,2013-07-07 11:05:00,
2013-07-07 07:10:00,71.1,69.6,30.17,SSE,161,0.0,0.0,95,0.00,,,0.00,18,Wunderground v.1.15,2013-07-07 11:10:00,
2013-07-07 07:20:00,71.3,69.8,30.17,SSE,161,0.0,0.0,95,0.00,,,0.00,19,Wunderground v.1.15,2013-07-07 11:20:00,
2013-07-07 07:25:00,71.5,70.0,30.17,SSE,163,0.0,0.0,95,0.00,,,0.00,19,Wunderground v.1.15,2013-07-07 11:25:00,
2013-07-07 07:30:00,71.8,70.3,30.17,SSE,163,0.0,0.0,95,0.00,,,0.00,19,Wunderground v.1.15,2013-07-07 11:30:00,
2013-07-07 07:35:00,72.0,70.5,30.17,SSE,163,0.0,0.0,95,0.00,,,0.00,21,Wunderground v.1.15,2013-07-07 11:35:00,
2013-07-07 07:40:00,72.2,70.7,30.17,SSE,163,0.0,0.0,95,0.00,,,0.00,21,Wunderground v.1.15,2013-07-07 11:40:00,
2013-07-07 07:50:00,72.9,71.4,30.17,SW,218,2.0,4.0,95,0.00,,,0.00,23,Wunderground v.1.15,2013-07-07 11:50:00,
2013-07-07 07:55:00,73.3,71.5,30.17,South,180,4.0,6.0,94,0.00,,,0.00,23,Wunderground v.1.15,2013-07-07 11:55:00,
2013-07-07 08:00:00,73.7,71.9,30.17,South,175,5.0,5.0,94,0.00,,,0.00,23,Wunderground v.1.15,2013-07-07 12:00:00,
2013-07-07 08:05:00,74.0,71.8,30.17,SSW,192,3.0,5.0,93,0.00,,,0.00,25,Wunderground v.1.15,2013-07-07 12:05:00,
2013-07-07 08:10:00,74.3,71.8,30.17,SSW,211,2.0,4.0,92,0.00,,,0.00,25,Wunderground v.1.15,2013-07-07 12:10:00,
2013-07-07 08:20:00,74.8,72.3,30.17,SSW,193,5.0,5.0,92,0.00,,,0.00,26,Wunderground v.1.15,2013-07-07 12:20:00,
2013-07-07 08:25:00,75.1,72.3,30.17,SSW,196,7.0,7.0,91,0.00,,,0.00,26,Wunderground v.1.15,2013-07-07 12:25:00,
2013-07-07 08:30:00,75.3,72.5,30.17,SSW,199,6.0,6.0,91,0.00,,,0.00,28,Wunderground v.1.15,2013-07-07 12:30:00,
2013-07-07 08:35:00,75.4,72.6,30.17,South,186,6.0,6.0,91,0.00,,,0.00,28,Wunderground v.1.15,2013-07-07 12:35:00,
2013-07-07 08:45:00,75.7,72.6,30.17,SSW,207,5.0,6.0,90,0.00,,,0.00,30,Wunderground v.1.15,2013-07-07 12:45:00,
2013-07-07 08:50:00,76.0,72.9,30.16,SSW,192,4.0,8.0,90,0.00,,,0.00,30,Wunderground v.1.15,2013-07-07 12:50:00,
2013-07-07 08:55:00,76.1,73.0,30.16,SSW,196,6.0,8.0,90,0.00,,,0.00,39,Wunderground v.1.15,2013-07-07 12:55:00,
2013-07-07 09:00:00,76.3,73.1,30.16,SSW,205,6.0,6.0,90,0.00,,,0.00,35,Wunderground v.1.15,2013-07-07 13:00:00,
2013-07-07 09:10:00,76.7,73.5,30.16,SSW,194,2.0,6.0,90,0.00,,,0.00,51,Wunderground v.1.15,2013-07-07 13:10:00,
2013-07-07 09:15:00,77.0,73.5,30.16,SW,226,3.0,6.0,89,0.00,,,0.00,95,Wunderground v.1.15,2013-07-07 13:15:00,
2013-07-07 09:20:00,77.1,73.3,30.16,South,184,5.0,6.0,88,0.00,,,0.00,90,Wunderground v.1.15,2013-07-07 13:20:00,
2013-07-07 09:25:00,77.4,73.6,30.16,South,182,7.0,7.0,88,0.00,,,0.00,118,Wunderground v.1.15,2013-07-07 13:25:00,
2013-07-07 09:30:00,77.5,73.3,30.16,South,190,8.0,10.0,87,0.00,,,0.00,141,Wunderground v.1.15,2013-07-07 13:30:00,
2013-07-07 09:40:00,78.0,73.5,30.16,SW,218,8.0,8.0,86,0.00,,,0.00,121,Wunderground v.1.15,2013-07-07 13:40:00,
2013-07-07 09:45:00,78.2,73.7,30.16,South,186,7.0,8.0,86,0.00,,,0.00,158,Wunderground v.1.15,2013-07-07 13:45:00,
2013-07-07 09:50:00,78.4,73.9,30.15,SSW,192,6.0,7.0,86,0.00,,,0.00,248,Wunderground v.1.15,2013-07-07 13:50:00,
2013-07-07 09:55:00,78.6,74.1,30.15,SSW,213,7.0,7.0,86,0.00,,,0.00,179,Wunderground v.1.15,2013-07-07 13:55:00,
2013-07-07 10:05:00,79.0,74.1,30.15,South,183,7.0,12.0,85,0.00,,,0.00,236,Wunderground v.1.15,2013-07-07 14:05:00,
2013-07-07 10:10:00,79.2,73.9,30.15,SSW,211,7.0,7.0,84,0.00,,,0.00,227,Wunderground v.1.15,2013-07-07 14:10:00,
2013-07-07 10:15:00,79.3,74.0,30.15,SSW,209,7.0,7.0,84,0.00,,,0.00,292,Wunderground v.1.15,2013-07-07 14:15:00,
2013-07-07 10:20:00,79.6,74.0,30.15,WSW,248,7.0,7.0,83,0.00,,,0.00,193,Wunderground v.1.15,2013-07-07 14:20:00,
2013-07-07 10:30:00,79.6,74.0,30.15,WSW,237,3.0,3.0,83,0.00,,,0.00,246,Wunderground v.1.15,2013-07-07 14:30:00,
2013-07-07 10:35:00,79.7,74.4,30.15,SW,233,2.0,3.0,84,0.00,,,0.00,267,Wunderground v.1.15,2013-07-07 14:35:00,
2013-07-07 10:40:00,79.7,74.4,30.15,West,266,1.0,1.0,84,0.00,,,0.00,171,Wunderground v.1.15,2013-07-07 14:40:00,
2013-07-07 10:45:00,79.6,74.3,30.15,West,263,1.0,3.0,84,0.00,,,0.00,218,Wunderground v.1.15,2013-07-07 14:45:00,
2013-07-07 10:55:00,79.4,74.1,30.15,West,265,2.0,2.0,84,0.00,,,0.00,202,Wunderground v.1.15,2013-07-07 14:55:00,
2013-07-07 11:00:00,79.3,74.0,30.15,WNW,284,1.0,1.0,84,0.00,,,0.00,313,Wunderground v.1.15,2013-07-07 15:00:00,
2013-07-07 11:05:00,79.3,74.0,30.15,West,272,0.0,2.0,84,0.00,,,0.00,144,Wunderground v.1.15,2013-07-07 15:05:00,
2013-07-07 11:10:00,79.4,74.5,30.15,South,182,0.0,0.0,85,0.00,,,0.00,127,Wunderground v.1.15,2013-07-07 15:10:00,
2013-07-07 11:15:00,79.5,74.2,30.15,WSW,240,1.0,1.0,84,0.00,,,0.00,227,Wunderground v.1.15,2013-07-07 15:15:00,
2013-07-07 11:25:00,79.7,74.4,30.15,West,265,0.0,0.0,84,0.00,,,0.00,174,Wunderground v.1.15,2013-07-07 15:25:00,
2013-07-07 11:30:00,79.5,73.9,30.16,WSW,242,0.0,1.0,83,0.00,,,0.00,144,Wunderground v.1.15,2013-07-07 15:30:00,
2013-07-07 11:35:00,79.7,74.1,30.15,SW,229,1.0,1.0,83,0.00,,,0.00,237,Wunderground v.1.15,2013-07-07 15:35:00,
2013-07-07 11:45:00,79.8,74.2,30.15,SSW,192,1.0,3.0,83,0.00,,,0.00,285,Wunderground v.1.15,2013-07-07 15:45:00,
2013-07-07 11:50:00,80.1,74.1,30.16,SSW,211,1.0,7.0,82,0.00,,,0.00,306,Wunderground v.1.15,2013-07-07 15:50:00,
2013-07-07 11:55:00,80.4,74.4,30.15,SW,223,4.0,7.0,82,0.00,,,0.00,200,Wunderground v.1.15,2013-07-07 15:55:00,
2013-07-07 12:00:00,80.3,74.3,30.16,SW,222,4.0,8.0,82,0.00,,,0.00,211,Wunderground v.1.15,2013-07-07 16:00:00,
2013-07-07 12:05:00,80.2,74.2,30.16,SSW,200,2.0,8.0,82,0.00,,,0.00,251,Wunderground v.1.15,2013-07-07 16:05:00,
2013-07-07 12:15:00,80.1,74.1,30.16,SW,223,2.0,3.0,82,0.00,,,0.00,311,Wunderground v.1.15,2013-07-07 16:15:00,
2013-07-07 12:20:00,80.3,74.3,30.16,SSW,193,1.0,1.0,82,0.00,,,0.00,267,Wunderground v.1.15,2013-07-07 16:20:00,
2013-07-07 12:25:00,80.5,74.5,30.15,West,273,2.0,5.0,82,0.00,,,0.00,283,Wunderground v.1.15,2013-07-07 16:25:00,
2013-07-07 12:30:00,80.6,74.6,30.15,SSW,207,3.0,3.0,82,0.00,,,0.00,294,Wunderground v.1.15,2013-07-07 16:30:00,
2013-07-07 12:40:00,80.8,74.0,30.15,SSW,200,3.0,3.0,80,0.00,,,0.00,396,Wunderground v.1.15,2013-07-07 16:40:00,
2013-07-07 12:45:00,81.0,74.6,30.15,South,191,2.0,6.0,81,0.00,,,0.00,408,Wunderground v.1.15,2013-07-07 16:45:00,
2013-07-07 12:50:00,81.4,74.6,30.14,SSW,198,2.0,5.0,80,0.00,,,0.00,575,Wunderground v.1.15,2013-07-07 16:50:00,
2013-07-07 12:55:00,82.0,75.2,30.14,South,190,4.0,5.0,80,0.00,,,0.00,397,Wunderground v.1.15,2013-07-07 16:55:00,
2013-07-07 13:00:00,82.3,74.7,30.14,South,189,4.0,5.0,78,0.00,,,0.00,406,Wunderground v.1.15,2013-07-07 17:00:00,
2013-07-07 13:10:00,82.6,75.0,30.14,SW,223,5.0,5.0,78,0.00,,,0.00,255,Wunderground v.1.15,2013-07-07 17:10:00,
2013-07-07 13:15:00,82.9,75.3,30.13,South,186,1.0,5.0,78,0.00,,,0.00,327,Wunderground v.1.15,2013-07-07 17:15:00,
2013-07-07 13:20:00,83.6,75.6,30.13,SW,219,0.0,0.0,77,0.00,,,0.00,390,Wunderground v.1.15,2013-07-07 17:20:00,
2013-07-07 13:25:00,84.0,75.2,30.13,SSE,165,1.0,4.0,75,0.00,,,0.00,1104,Wunderground v.1.15,2013-07-07 17:25:00,
2013-07-07 13:30:00,84.7,75.5,30.12,SW,226,3.0,6.0,74,0.00,,,0.00,1062,Wunderground v.1.15,2013-07-07 17:30:00,
2013-07-07 13:40:00,84.9,75.3,30.12,SSW,193,5.0,5.0,73,0.00,,,0.00,1060,Wunderground v.1.15,2013-07-07 17:40:00,
2013-07-07 13:45:00,85.1,75.5,30.12,SSE,165,5.0,10.0,73,0.00,,,0.00,1021,Wunderground v.1.15,2013-07-07 17:45:00,
2013-07-07 13:50:00,85.6,75.5,30.12,South,190,5.0,5.0,72,0.00,,,0.00,1127,Wunderground v.1.15,2013-07-07 17:50:00,
2013-07-07 14:00:00,85.5,75.4,30.12,South,190,4.0,4.0,72,0.00,,,0.00,1078,Wunderground v.1.15,2013-07-07 18:00:00,
2013-07-07 14:05:00,85.6,75.5,30.11,South,181,5.0,11.0,72,0.00,,,0.00,1076,Wunderground v.1.15,2013-07-07 18:05:00,
2013-07-07 14:10:00,85.2,75.1,30.11,SSW,194,6.0,6.0,72,0.00,,,0.00,1081,Wunderground v.1.15,2013-07-07 18:10:00,
2013-07-07 14:15:00,85.3,74.8,30.11,SSW,198,8.0,8.0,71,0.00,,,0.00,1100,Wunderground v.1.15,2013-07-07 18:15:00,
2013-07-07 14:20:00,85.0,75.0,30.11,South,171,7.0,7.0,72,0.00,,,0.00,1027,Wunderground v.1.15,2013-07-07 18:20:00,
2013-07-07 14:30:00,86.3,75.4,30.11,South,190,7.0,8.0,70,0.00,,,0.00,983,Wunderground v.1.15,2013-07-07 18:30:00,
2013-07-07 14:35:00,86.4,75.5,30.10,SSE,157,7.0,8.0,70,0.00,,,0.00,981,Wunderground v.1.15,2013-07-07 18:35:00,
2013-07-07 14:40:00,86.5,75.5,30.10,South,169,6.0,10.0,70,0.00,,,0.00,1032,Wunderground v.1.15,2013-07-07 18:40:00,
2013-07-07 14:45:00,86.6,76.1,30.10,SSE,165,6.0,10.0,71,0.00,,,0.00,1046,Wunderground v.1.15,2013-07-07 18:45:00,
2013-07-07 14:55:00,87.3,75.4,30.09,South,181,6.0,9.0,68,0.00,,,0.00,1035,Wunderground v.1.15,2013-07-07 18:55:00,
2013-07-07 15:00:00,87.0,75.2,30.09,SSE,167,6.0,10.0,68,0.00,,,0.00,315,Wunderground v.1.15,2013-07-07 19:00:00,
2013-07-07 15:10:00,86.0,75.1,30.09,SSW,198,5.0,5.0,70,0.00,,,0.00,1097,Wunderground v.1.15,2013-07-07 19:10:00,
2013-07-07 15:15:00,86.1,75.6,30.09,South,170,4.0,7.0,71,0.00,,,0.00,353,Wunderground v.1.15,2013-07-07 19:15:00,
2013-07-07 15:20:00,86.1,75.6,30.09,SSE,155,5.0,7.0,71,0.00,,,0.00,255,Wunderground v.1.15,2013-07-07 19:20:00,
2013-07-07 15:30:00,87.2,75.8,30.08,South,182,5.0,7.0,69,0.00,,,0.00,904,Wunderground v.1.15,2013-07-07 19:30:00,
2013-07-07 15:35:00,87.4,76.0,30.08,South,186,6.0,7.0,69,0.00,,,0.00,171,Wunderground v.1.15,2013-07-07 19:35:00,
2013-07-07 15:40:00,87.3,76.3,30.08,South,178,6.0,6.0,70,0.00,,,0.00,970,Wunderground v.1.15,2013-07-07 19:40:00,
2013-07-07 15:45:00,87.2,75.8,30.08,SSE,157,7.0,7.0,69,0.00,,,0.00,998,Wunderground v.1.15,2013-07-07 19:45:00,
2013-07-07 15:55:00,87.2,76.2,30.08,South,173,6.0,8.0,70,0.00,,,0.00,905,Wunderground v.1.15,2013-07-07 19:55:00,
2013-07-07 16:00:00,87.4,76.4,30.07,SSE,167,6.0,12.0,70,0.00,,,0.00,197,Wunderground v.1.15,2013-07-07 20:00:00,
2013-07-07 16:05:00,86.9,75.5,30.08,South,169,6.0,12.0,69,0.00,,,0.00,193,Wunderground v.1.15,2013-07-07 20:05:00,
2013-07-07 16:10:00,87.0,76.0,30.07,South,178,5.0,6.0,70,0.00,,,0.00,733,Wunderground v.1.15,2013-07-07 20:10:00,
2013-07-07 16:20:00,87.4,76.4,30.06,SE,143,7.0,7.0,70,0.00,,,0.00,879,Wunderground v.1.15,2013-07-07 20:20:00,
2013-07-07 16:25:00,87.5,76.5,30.06,South,186,8.0,9.0,70,0.00,,,0.00,838,Wunderground v.1.15,2013-07-07 20:25:00,
2013-07-07 16:30:00,87.6,76.6,30.07,SSE,158,8.0,8.0,70,0.00,,,0.00,812,Wunderground v.1.15,2013-07-07 20:30:00,
2013-07-07 16:35:00,87.6,76.6,30.06,South,185,7.0,8.0,70,0.00,,,0.00,800,Wunderground v.1.15,2013-07-07 20:35:00,
2013-07-07 16:45:00,86.8,76.3,30.06,South,191,6.0,7.0,71,0.00,,,0.00,780,Wunderground v.1.15,2013-07-07 20:45:00,
2013-07-07 16:50:00,86.8,76.7,30.06,SE,140,5.0,5.0,72,0.00,,,0.00,645,Wunderground v.1.15,2013-07-07 20:50:00,
2013-07-07 16:55:00,87.3,76.3,30.06,South,171,3.0,5.0,70,0.00,,,0.00,728,Wunderground v.1.15,2013-07-07 20:55:00,
2013-07-07 17:00:00,87.8,76.8,30.06,South,185,4.0,5.0,70,0.00,,,0.00,213,Wunderground v.1.15,2013-07-07 21:00:00,
2013-07-07 17:10:00,87.8,76.4,30.05,South,178,3.0,5.0,69,0.00,,,0.00,564,Wunderground v.1.15,2013-07-07 21:10:00,
2013-07-07 17:15:00,87.5,76.1,30.05,SSE,165,5.0,9.0,69,0.00,,,0.00,111,Wunderground v.1.15,2013-07-07 21:15:00,
2013-07-07 17:20:00,86.7,76.2,30.05,South,190,7.0,7.0,71,0.00,,,0.00,580,Wunderground v.1.15,2013-07-07 21:20:00,
2013-07-07 17:25:00,86.7,76.6,30.05,South,177,4.0,7.0,72,0.00,,,0.00,570,Wunderground v.1.15,2013-07-07 21:25:00,
2013-07-07 17:30:00,87.2,76.6,30.04,South,184,1.0,1.0,71,0.00,,,0.00,563,Wunderground v.1.15,2013-07-07 21:30:00,
2013-07-07 17:40:00,87.4,76.4,30.05,SW,216,3.0,3.0,70,0.00,,,0.00,513,Wunderground v.1.15,2013-07-07 21:40:00,
2013-07-07 17:45:00,87.1,76.1,30.05,South,187,3.0,3.0,70,0.00,,,0.00,294,Wunderground v.1.15,2013-07-07 21:45:00,
2013-07-07 17:50:00,86.7,76.2,30.04,SW,214,3.0,3.0,71,0.00,,,0.00,332,Wunderground v.1.15,2013-07-07 21:50:00,
2013-07-07 17:55:00,86.5,76.0,30.04,SSW,194,3.0,6.0,71,0.00,,,0.00,230,Wunderground v.1.15,2013-07-07 21:55:00,
2013-07-07 18:05:00,86.0,75.5,30.04,SSE,166,5.0,7.0,71,0.00,,,0.00,104,Wunderground v.1.15,2013-07-07 22:05:00,
2013-07-07 18:10:00,85.6,75.5,30.04,SSE,163,5.0,5.0,72,0.00,,,0.00,97,Wunderground v.1.15,2013-07-07 22:10:00,
2013-07-07 18:15:00,85.4,75.8,30.04,South,179,3.0,5.0,73,0.00,,,0.00,322,Wunderground v.1.15,2013-07-07 22:15:00,
2013-07-07 18:20:00,85.2,76.0,30.04,South,185,2.0,2.0,74,0.00,,,0.00,128,Wunderground v.1.15,2013-07-07 22:20:00,
2013-07-07 18:30:00,85.2,76.0,30.05,South,181,0.0,0.0,74,0.00,,,0.00,93,Wunderground v.1.15,2013-07-07 22:30:00,
2013-07-07 18:35:00,85.1,75.9,30.04,South,181,0.0,0.0,74,0.00,,,0.00,56,Wunderground v.1.15,2013-07-07 22:35:00,
2013-07-07 18:40:00,85.0,76.2,30.05,South,181,0.0,0.0,75,0.00,,,0.00,53,Wunderground v.1.15,2013-07-07 22:40:00,
2013-07-07 18:45:00,85.0,76.6,30.04,SSE,162,0.0,0.0,76,0.00,,,0.00,86,Wunderground v.1.15,2013-07-07 22:45:00,
2013-07-07 18:55:00,84.7,76.7,30.05,South,172,0.0,0.0,77,0.00,,,0.00,90,Wunderground v.1.15,2013-07-07 22:55:00,
2013-07-07 19:00:00,84.6,76.6,30.05,South,172,0.0,0.0,77,0.00,,,0.00,84,Wunderground v.1.15,2013-07-07 23:00:00,
2013-07-07 19:05:00,84.7,77.8,30.05,South,172,0.0,0.0,80,0.00,,,0.00,83,Wunderground v.1.15,2013-07-07 23:05:00,
2013-07-07 19:10:00,84.4,77.9,30.05,South,172,0.0,0.0,81,0.00,,,0.00,83,Wunderground v.1.15,2013-07-07 23:10:00,
2013-07-07 19:15:00,84.2,78.5,30.05,South,172,0.0,0.0,83,0.00,,,0.00,105,Wunderground v.1.15,2013-07-07 23:15:00,
2013-07-07 19:25:00,83.7,78.3,30.05,South,172,0.0,0.0,84,0.00,,,0.00,91,Wunderground v.1.15,2013-07-07 23:25:00,
2013-07-07 19:30:00,83.4,77.7,30.05,South,172,0.0,0.0,83,0.00,,,0.00,65,Wunderground v.1.15,2013-07-07 23:30:00,
2013-07-07 19:35:00,83.3,78.0,30.05,South,172,0.0,0.0,84,0.00,,,0.00,72,Wunderground v.1.15,2013-07-07 23:35:00,
2013-07-07 19:40:00,83.2,77.9,30.05,South,172,0.0,0.0,84,0.00,,,0.00,63,Wunderground v.1.15,2013-07-07 23:40:00,
2013-07-07 19:50:00,83.2,77.9,30.05,South,172,0.0,0.0,84,0.00,,,0.00,60,Wunderground v.1.15,2013-07-07 23:50:00,
2013-07-07 19:55:00,83.2,77.9,30.05,South,172,0.0,0.0,84,0.00,,,0.00,56,Wunderground v.1.15,2013-07-07 23:55:00,
2013-07-07 20:05:00,83.0,77.7,30.06,South,172,0.0,0.0,84,0.00,,,0.00,23,Wunderground v.1.15,2013-07-08 00:05:00,
2013-07-07 20:10:00,82.8,77.1,30.05,South,172,0.0,0.0,83,0.00,,,0.00,18,Wunderground v.1.15,2013-07-08 00:10:00,
2013-07-07 20:15:00,82.6,77.3,30.06,South,172,0.0,0.0,84,0.00,,,0.00,14,Wunderground v.1.15,2013-07-08 00:15:00,
2013-07-07 20:20:00,82.2,76.9,30.06,South,172,0.0,0.0,84,0.00,,,0.00,9,Wunderground v.1.15,2013-07-08 00:20:00,
2013-07-07 20:25:00,81.7,76.4,30.06,South,172,0.0,0.0,84,0.00,,,0.00,5,Wunderground v.1.15,2013-07-08 00:25:00,
2013-07-07 20:35:00,80.9,76.3,30.06,South,172,0.0,0.0,86,0.00,,,0.00,0,Wunderground v.1.15,2013-07-08 00:35:00,
2013-07-07 20:40:00,80.6,76.4,30.06,South,172,0.0,0.0,87,0.00,,,0.00,0,Wunderground v.1.15,2013-07-08 00:40:00,
2013-07-07 20:45:00,80.4,76.5,30.06,South,172,0.0,0.0,88,0.00,,,0.00,0,Wunderground v.1.15,2013-07-08 00:45:00,
2013-07-07 20:50:00,80.2,76.7,30.06,South,172,0.0,0.0,89,0.00,,,0.00,0,Wunderground v.1.15,2013-07-08 00:50:00,
2013-07-07 21:00:00,79.8,76.3,30.07,South,172,0.0,0.0,89,0.00,,,0.00,0,Wunderground v.1.15,2013-07-08 01:00:00,
2013-07-07 21:05:00,79.5,76.0,30.07,South,172,0.0,0.0,89,0.00,,,0.00,0,Wunderground v.1.15,2013-07-08 01:05:00,
2013-07-07 21:10:00,79.2,75.7,30.07,South,172,0.0,0.0,89,0.00,,,0.00,0,Wunderground v.1.15,2013-07-08 01:10:00,
2013-07-07 21:15:00,79.0,76.1,30.07,South,172,0.0,0.0,91,0.00,,,0.00,0,Wunderground v.1.15,2013-07-08 01:15:00,
2013-07-07 21:20:00,78.9,76.0,30.07,South,172,0.0,0.0,91,0.00,,,0.00,0,Wunderground v.1.15,2013-07-08 01:20:00,
2013-07-07 21:30:00,78.7,75.8,30.08,South,172,0.0,0.0,91,0.00,,,0.00,0,Wunderground v.1.15,2013-07-08 01:30:00,
2013-07-07 21:35:00,78.5,75.7,30.08,South,172,0.0,0.0,91,0.00,,,0.00,0,Wunderground v.1.15,2013-07-08 01:35:00,
2013-07-07 21:40:00,78.3,75.5,30.08,South,172,0.0,0.0,91,0.00,,,0.00,0,Wunderground v.1.15,2013-07-08 01:40:00,
2013-07-07 21:45:00,78.1,75.3,30.08,South,172,0.0,0.0,91,0.00,,,0.00,0,Wunderground v.1.15,2013-07-08 01:45:00,
2013-07-07 21:55:00,78.0,75.5,30.09,South,172,0.0,0.0,92,0.00,,,0.00,0,Wunderground v.1.15,2013-07-08 01:55:00,
2013-07-07 22:00:00,78.0,75.5,30.08,South,172,0.0,0.0,92,0.00,,,0.00,0,Wunderground v.1.15,2013-07-08 02:00:00,
2013-07-07 22:05:00,78.4,75.9,30.08,South,172,0.0,0.0,92,0.00,,,0.00,0,Wunderground v.1.15,2013-07-08 02:05:00,
2013-07-07 22:10:00,78.6,75.8,30.08,South,171,0.0,0.0,91,0.00,,,0.00,0,Wunderground v.1.15,2013-07-08 02:10:00,
2013-07-07 22:20:00,78.9,75.7,30.09,South,180,0.0,0.0,90,0.00,,,0.00,0,Wunderground v.1.15,2013-07-08 02:20:00,
2013-07-07 22:25:00,78.5,75.7,30.09,South,180,0.0,0.0,91,0.00,,,0.00,0,Wunderground v.1.15,2013-07-08 02:25:00,
2013-07-07 22:30:00,77.7,75.2,30.09,WNW,292,0.0,0.0,92,0.00,,,0.00,0,Wunderground v.1.15,2013-07-08 02:30:00,
2013-07-07 22:35:00,77.4,75.2,30.09,NNW,344,0.0,0.0,93,0.00,,,0.00,0,Wunderground v.1.15,2013-07-08 02:35:00,
2013-07-07 22:40:00,77.5,75.6,30.10,NNE,20,1.0,1.0,94,0.00,,,0.00,0,Wunderground v.1.15,2013-07-08 02:40:00,
2013-07-07 22:50:00,77.0,74.8,30.11,WNW,298,1.0,4.0,93,0.00,,,0.00,0,Wunderground v.1.15,2013-07-08 02:50:00,
2013-07-07 22:55:00,77.2,72.3,30.13,WNW,296,6.0,17.0,85,0.00,,,0.00,0,Wunderground v.1.15,2013-07-08 02:55:00,
2013-07-07 23:00:00,77.1,71.2,30.14,WNW,290,11.0,16.0,82,0.00,,,0.00,0,Wunderground v.1.15,2013-07-08 03:00:00,
2013-07-07 23:05:00,75.6,70.8,30.13,NW,310,11.0,16.0,85,0.61,,,0.06,0,Wunderground v.1.15,2013-07-08 03:05:00,
2013-07-07 23:10:00,73.7,70.3,30.13,NNW,346,9.0,9.0,89,0.20,,,0.09,0,Wunderground v.1.15,2013-07-08 03:10:00,
2013-07-07 23:20:00,72.4,69.9,30.12,NW,320,3.0,3.0,92,0.10,,,0.11,0,Wunderground v.1.15,2013-07-08 03:20:00,
2013-07-07 23:25:00,72.4,70.3,30.11,NW,321,1.0,3.0,93,0.06,,,0.12,0,Wunderground v.1.15,2013-07-08 03:25:00,
2013-07-07 23:30:00,72.2,70.1,30.10,NW,322,0.0,0.0,93,0.06,,,0.12,0,Wunderground v.1.15,2013-07-08 03:30:00,
2013-07-07 23:40:00,71.9,70.1,30.10,NW,322,0.0,0.0,94,0.04,,,0.12,0,Wunderground v.1.15,2013-07-08 03:40:00,
2013-07-07 23:45:00,71.9,70.4,30.09,NW,322,0.0,0.0,95,0.00,,,0.12,0,Wunderground v.1.15,2013-07-08 03:45:00,
2013-07-07 23:50:00,71.9,70.4,30.09,NW,322,0.0,0.0,95,0.00,,,0.12,0,Wunderground v.1.15,2013-07-08 03:50:00,
2013-07-07 23:55:00,72.0,70.8,30.09,NW,322,0.0,0.0,96,0.00,,,0.12,0,Wunderground v.1.15,2013-07-08 03:55:00,